Regional Weather Roundup
Issued by NWS Charleston, WV

Home | Current Version | Previous Version | Graphics & Text | Print | Product List | Glossary On
Versions: 1 2 3 4 5 6 7 8 9 10 11 12 13 14 15 16 17 18 19 20 21 22 23 24 25 26 27 28 29 30 31 32 33 34 35 36 37 38 39 40 41 42 43 44 45 46 47 48 49 50
000
ASUS41 KRLX 160810
RWRRLX
West Virginia Regional Weather Roundup
National Weather Service Charleston WV
300 AM EST MON JAN 16 2017

Note: "fair" indicates few or no clouds below 12,000 feet with no
significant weather and/or obstructions to visibility.

WVZ003-160900-
Northern Panhandle of West Virginia

CITY           SKY/WX    TMP DP  RH WIND       PRES   REMARKS
WHEELING       CLOUDY    28  22  78 SE3       30.34S
$$

WVZ009-160900-
Northwest West Virginia

CITY           SKY/WX    TMP DP  RH WIND       PRES   REMARKS
PARKERSBURG    CLOUDY    34  32  92 CALM      30.36R FOG
$$

WVZ006-160900-
Western West Virginia

CITY           SKY/WX    TMP DP  RH WIND       PRES   REMARKS
HUNTINGTON     CLOUDY    39  37  92 E5        30.31R FOG
$$

WVZ015-160900-
West Central West Virginia

CITY           SKY/WX    TMP DP  RH WIND       PRES   REMARKS
CHARLESTON     CLOUDY    40  39  97 CALM      30.31S
$$

WVZ022-031-160900-
North Central West Virginia

CITY           SKY/WX    TMP DP  RH WIND       PRES   REMARKS
CLARKSBURG     PTCLDY    32  30  92 N6        30.32S
MORGANTOWN     PTCLDY    31  26  82 CALM      30.34R
$$

WVZ025-035-042-045-160900-
Southern West Virginia

CITY           SKY/WX    TMP DP  RH WIND       PRES   REMARKS
BECKLEY        CLOUDY    44  43  96 CALM      30.27S FOG
LOGAN          FOG       43  43 100 NE3       30.28R VSB<1/4
BLUEFIELD      CLOUDY    48  47  96 SW5       30.28F
LEWISBURG      RAIN      43  43 100 N3        30.30R
$$

WVZ047-160900-
Northern Mountains of West Virginia

CITY           SKY/WX    TMP DP  RH WIND       PRES   REMARKS
ELKINS         PTCLDY    37  35  92 CALM      30.31R
$$

WVZ052-160900-
Eastern Panhandle of West Virginia

CITY           SKY/WX    TMP DP  RH WIND       PRES   REMARKS
MARTINSBURG    CLOUDY    33  26  75 CALM      30.40F
PETERSBURG     CLOUDY    39  34  83 N3        30.39R
$$




USA.gov is the U.S. government's official web portal to all federal, state and local government web resources and services.